 day,  time,  air_temp(C),  RH(%),  ground_temp10cm(C),  ground_temp20cm(C),  ground_temp40cm(C),  precipitation(mm/h),  Solar_Radiation(MJ/m2h),  lack, 
 07/10/01, 01:00,  11.1,  99,  14.7,  16.2,  17.8,   0.0,  0.00, 
 07/10/01, 02:00,  11.1,  99,  14.7,  16.1,  17.8,   0.0,  0.00, 
 07/10/01, 03:00,  11.2,  99,  14.7,  16.1,  17.8,   0.5,  0.00, 
 07/10/01, 04:00,  11.3,  99,  14.6,  16.0,  17.8,   0.0,  0.00, 
 07/10/01, 05:00,  11.6,  99,  14.5,  15.9,  17.7,   0.0,  0.00, 
 07/10/01, 06:00,  11.8,  99,  14.6,  15.8,  17.7,   0.5,  0.00, 
 07/10/01, 07:00,  11.5,  99,  14.6,  15.9,  17.7,   0.0,  0.06, 
 07/10/01, 08:00,  11.5,  99,  14.6,  15.8,  17.7,   0.0,  0.12, 
 07/10/01, 09:00,  11.5,  99,  14.7,  15.8,  17.7,   1.0,  0.23, 
 07/10/01, 10:00,  12.3,  99,  14.7,  15.8,  17.7,   0.0,  0.37, 
 07/10/01, 11:00,  12.3,  99,  14.9,  15.7,  17.7,   0.0,  0.39, 
 07/10/01, 12:00,  12.4,  99,  15.0,  15.8,  17.6,   0.5,  0.36, 
 07/10/01, 13:00,  12.6,  99,  15.1,  15.7,  17.6,   0.0,  0.36, 
 07/10/01, 14:00,  12.7,  99,  15.2,  15.7,  17.6,   0.0,  0.66, 
 07/10/01, 15:00,  12.6,  99,  15.4,  15.7,  17.6,   0.0,  0.44, 
 07/10/01, 16:00,  12.5,  99,  15.5,  15.9,  17.5,   0.0,  0.25, 
 07/10/01, 17:00,  12.2,  99,  15.6,  15.9,  17.5,   0.0,  0.13, 
 07/10/01, 18:00,  11.9,  99,  15.5,  15.8,  17.5,   1.0,  0.00, 
 07/10/01, 19:00,  11.9,  99,  15.5,  15.9,  17.5,   0.0,  0.00, 
 07/10/01, 20:00,  11.9,  99,  15.4,  15.9,  17.4,   0.0,  0.00, 
 07/10/01, 21:00,  11.8,  99,  15.3,  16.0,  17.4,   0.0,  0.00, 
 07/10/01, 22:00,  12.0,  99,  15.2,  15.9,  17.4,   0.0,  0.00, 
 07/10/01, 23:00,  11.9,  99,  15.2,  15.9,  17.4,   0.0,  0.00, 
 07/10/02, 00:00,  11.8,  99,  15.1,  16.0,  17.4,   0.0,  0.00, 
 07/10/02, 01:00,  11.8,  99,  15.1,  16.0,  17.4,   0.0,  0.00, 
 07/10/02, 02:00,  11.9,  99,  15.0,  16.0,  17.4,   0.0,  0.00, 
 07/10/02, 03:00,  11.9,  99,  15.0,  15.8,  17.4,   0.5,  0.00, 
 07/10/02, 04:00,  11.6,  99,  14.9,  15.9,  17.4,   0.5,  0.00, 
 07/10/02, 05:00,  11.3,  99,  14.9,  15.9,  17.3,   1.0,  0.00, 
 07/10/02, 06:00,  10.0,  99,  14.7,  15.8,  17.3,   0.5,  0.00, 
 07/10/02, 07:00,  10.2,  99,  14.7,  15.7,  17.3,   0.5,  0.05, 
 07/10/02, 08:00,  10.9,  99,  14.7,  15.7,  17.3,   0.0,  0.29, 
 07/10/02, 09:00,  11.3,  99,  14.7,  15.7,  17.3,   0.0,  0.53, 
 07/10/02, 10:00,  12.5,  99,  15.0,  15.7,  17.2,   0.0,  1.85, 
 07/10/02, 11:00,  13.2,  99,  15.5,  15.6,  17.3,   0.0,  1.01, 
 07/10/02, 12:00,  13.5,  99,  15.9,  15.7,  17.2,   0.0,  1.14, 
 07/10/02, 13:00,  14.3,  95,  16.2,  15.7,  17.2,   0.0,  1.00, 
 07/10/02, 14:00,  14.5,  89,  16.5,  15.9,  17.2,   0.0,  1.22, 
 07/10/02, 15:00,  15.1,  86,  16.8,  16.0,  17.2,   0.0,  2.09, 
 07/10/02, 16:00,  13.8,  94,  16.9,  16.1,  17.2,   0.0,  0.72, 
 07/10/02, 17:00,  13.2,  93,  16.8,  16.2,  17.2,   0.0,  0.54, 
 07/10/02, 18:00,  12.3,  99,  16.7,  16.3,  17.2,   0.0,  0.03, 
 07/10/02, 19:00,  11.8,  99,  16.6,  16.4,  17.2,   0.0,  0.00, 
 07/10/02, 20:00,  11.5,  99,  16.4,  16.4,  17.2,   0.0,  0.00, 
 07/10/02, 21:00,  11.3,  99,  16.2,  16.4,  17.2,   0.0,  0.00, 
 07/10/02, 22:00,  11.4,  99,  16.1,  16.4,  17.2,   0.0,  0.00, 
 07/10/02, 23:00,  11.4,  99,  15.9,  16.4,  17.2,   0.0,  0.00, 
 07/10/03, 00:00,  10.6,  99,  15.8,  16.4,  17.2,   0.0,  0.00, 
 07/10/03, 01:00,  10.0,  99,  15.6,  16.4,  17.2,   0.0,  0.00, 
 07/10/03, 02:00,  11.0,  99,  15.4,  16.4,  17.2,   0.0,  0.00, 
 07/10/03, 03:00,  10.8,  99,  15.2,  16.2,  17.2,   0.0,  0.00, 
 07/10/03, 04:00,  10.7,  99,  15.1,  16.3,  17.2,   0.0,  0.00, 
 07/10/03, 05:00,  10.2,  99,  15.1,  16.2,  17.2,   0.0,  0.00, 
 07/10/03, 06:00,  10.0,  99,  15.0,  16.0,  17.1,   0.0,  0.00, 
 07/10/03, 07:00,  10.6,  99,  14.8,  16.1,  17.2,   0.0,  0.09, 
 07/10/03, 08:00,  12.1,  99,  14.7,  16.0,  17.2,   0.0,  0.25, 
 07/10/03, 09:00,  12.8,  98,  14.8,  16.0,  17.2,   0.0,  0.72, 
 07/10/03, 10:00,  13.5,  95,  15.0,  15.8,  17.1,   0.0,  0.96, 
 07/10/03, 11:00,  14.3,  92,  15.3,  15.9,  17.1,   0.0,  1.00, 
 07/10/03, 12:00,  14.5,  89,  15.7,  15.9,  17.1,   0.0,  1.19, 
 07/10/03, 13:00,  17.0,  80,  16.1,  15.8,  17.1,   0.0,  1.91, 
 07/10/03, 14:00,  18.7,  69,  16.7,  16.0,  17.1,   0.0,  2.92, 
 07/10/03, 15:00,  16.6,  77,  17.1,  16.0,  17.1,   0.0,  1.98, 
 07/10/03, 16:00,  14.8,  88,  17.2,  16.2,  17.1,   0.0,  0.46, 
 07/10/03, 17:00,  13.8,  96,  17.2,  16.3,  17.1,   0.0,  0.12, 
 07/10/03, 18:00,  13.2,  98,  17.1,  16.4,  17.0,   0.0,  0.01, 
 07/10/03, 19:00,  12.9,  99,  16.9,  16.5,  17.0,   0.0,  0.00, 
 07/10/03, 20:00,  12.6,  99,  16.7,  16.6,  17.0,   0.0,  0.00, 
 07/10/03, 21:00,  12.2,  99,  16.6,  16.6,  17.1,   0.0,  0.00, 
 07/10/03, 22:00,  12.0,  99,  16.4,  16.6,  17.1,   0.0,  0.00, 
 07/10/03, 23:00,  11.8,  99,  16.3,  16.6,  17.1,   0.0,  0.00, 
 07/10/04, 00:00,  11.8,  99,  16.1,  16.6,  17.1,   0.0,  0.00, 
 07/10/04, 01:00,  11.9,  94,  16.0,  16.6,  17.0,   0.0,  0.00, 
 07/10/04, 02:00,  10.8,  99,  15.7,  16.6,  17.0,   0.0,  0.00, 
 07/10/04, 03:00,  10.7,  97,  15.6,  16.5,  17.0,   0.0,  0.00, 
 07/10/04, 04:00,  10.3,  98,  15.5,  16.5,  17.0,   0.0,  0.00, 
 07/10/04, 05:00,   9.6,  99,  15.3,  16.4,  17.0,   0.0,  0.00, 
 07/10/04, 06:00,  10.5,  99,  15.1,  16.4,  17.0,   0.0,  0.00, 
 07/10/04, 07:00,  11.8,  96,  15.0,  16.3,  17.0,   0.0,  0.11, 
 07/10/04, 08:00,  12.5,  93,  14.9,  16.2,  17.1,   0.0,  0.48, 
 07/10/04, 09:00,  14.6,  83,  15.1,  16.2,  17.1,   0.0,  1.58, 
 07/10/04, 10:00,  15.0,  88,  15.2,  16.1,  17.1,   0.0,  1.72, 
 07/10/04, 11:00,  17.1,  81,  15.7,  16.1,  17.1,   0.0,  2.45, 
 07/10/04, 12:00,  18.8,  77,  16.8,  16.1,  17.0,   0.0,  2.92, 
 07/10/04, 13:00,  17.9,  79,  18.0,  16.1,  17.1,   0.0,  2.48, 
 07/10/04, 14:00,  18.9,  80,  18.8,  16.3,  17.1,   0.0,  2.76, 
 07/10/04, 15:00,  17.5,  83,  19.1,  16.5,  17.1,   0.0,  1.19, 
 07/10/04, 16:00,  16.7,  85,  19.1,  16.7,  17.1,   0.0,  0.62, 
 07/10/04, 17:00,  15.2,  89,  18.9,  16.9,  17.0,   0.0,  0.15, 
 07/10/04, 18:00,  14.3,  94,  18.6,  17.1,  17.0,   0.0,  0.00, 
 07/10/04, 19:00,  14.0,  95,  18.3,  17.2,  16.9,   0.0,  0.00, 
 07/10/04, 20:00,  13.8,  97,  18.0,  17.3,  17.0,   0.0,  0.00, 
 07/10/04, 21:00,  13.4,  99,  17.8,  17.3,  17.1,   1.0,  0.00, 
 07/10/04, 22:00,  13.4,  99,  17.5,  17.4,  17.1,   0.0,  0.00, 
 07/10/04, 23:00,  13.2,  99,  17.3,  17.3,  17.1,   6.0,  0.00, 
 07/10/05, 00:00,  13.2,  99,  17.0,  17.3,  17.1,   2.5,  0.00, 
 07/10/05, 01:00,  13.0,  99,  16.5,  17.3,  17.1,  15.0,  0.00, 
 07/10/05, 02:00,  12.6,  99,  16.0,  17.2,  17.1,  11.5,  0.00, 
 07/10/05, 03:00,  12.6,  99,  15.5,  16.9,  17.1,  10.0,  0.00, 
 07/10/05, 04:00,  12.4,  99,  15.3,  16.8,  17.1,   1.5,  0.00, 
 07/10/05, 05:00,  12.4,  99,  15.2,  16.7,  17.1,   7.5,  0.00, 
 07/10/05, 06:00,  12.5,  99,  15.0,  16.5,  17.1,   2.0,  0.00, 
 07/10/05, 07:00,  12.7,  99,  15.0,  16.4,  17.1,   0.5,  0.03, 
 07/10/05, 08:00,  12.5,  99,  15.0,  16.3,  17.1,   0.0,  0.10, 
 07/10/05, 09:00,  12.5,  99,  15.0,  16.2,  17.1,   0.5,  0.44, 
 07/10/05, 10:00,  13.2,  99,  15.2,  16.1,  17.1,   0.0,  0.88, 
 07/10/05, 11:00,  12.5,  99,  15.4,  16.1,  17.0,   0.0,  0.54, 
 07/10/05, 12:00,  13.6,  99,  15.6,  15.9,  17.0,   0.0,  1.49, 
 07/10/05, 13:00,  13.0,  99,  16.1,  16.0,  17.0,   0.0,  1.42, 
 07/10/05, 14:00,  13.5,  99,  16.6,  16.1,  17.0,   0.0,  1.49, 
 07/10/05, 15:00,  13.7,  87,  16.8,  16.1,  17.0,   0.0,  1.67, 
 07/10/05, 16:00,  13.4,  90,  16.9,  16.2,  17.0,   0.0,  0.99, 
 07/10/05, 17:00,  12.6,  93,  16.9,  16.3,  16.9,   0.0,  0.61, 
 07/10/05, 18:00,  11.4,  99,  16.7,  16.3,  16.9,   0.0,  0.08, 
 07/10/05, 19:00,  10.9,  99,  16.4,  16.4,  16.9,   0.0,  0.00, 
 07/10/05, 20:00,   9.5,  99,  16.2,  16.4,  16.9,   0.0,  0.00, 
 07/10/05, 21:00,   9.7,  99,  15.9,  16.4,  16.8,   0.0,  0.00, 
 07/10/05, 22:00,   9.8,  99,  15.6,  16.4,  16.8,   0.0,  0.00, 
 07/10/05, 23:00,   9.8,  99,  15.4,  16.3,  16.9,   0.0,  0.00, 
 07/10/06, 00:00,   9.8,  99,  15.2,  16.3,  16.9,   0.0,  0.00, 
 07/10/06, 01:00,   9.6,  99,  15.1,  16.2,  16.9,   0.0,  0.00, 
 07/10/06, 02:00,   8.2,  99,  15.0,  16.1,  16.9,   0.0,  0.00, 
 07/10/06, 03:00,   7.0,  99,  14.7,  16.1,  16.9,   0.0,  0.00, 
 07/10/06, 04:00,   7.4,  99,  14.5,  15.9,  16.9,   0.0,  0.00, 
 07/10/06, 05:00,   6.4,  99,  14.2,  15.9,  16.9,   0.0,  0.00, 
 07/10/06, 06:00,   6.9,  99,  13.9,  15.7,  16.8,   0.0,  0.00, 
 07/10/06, 07:00,   7.8,  99,  13.6,  15.6,  16.9,   0.0,  0.22, 
 07/10/06, 08:00,  10.9,  85,  13.6,  15.6,  16.8,   0.0,  0.95, 
 07/10/06, 09:00,  10.3,  98,  13.7,  15.5,  16.8,   0.0,  1.40, 
 07/10/06, 10:00,  10.8,  90,  13.9,  15.4,  16.8,   0.0,  0.99, 
 07/10/06, 11:00,  10.9,  94,  14.2,  15.4,  16.8,   0.0,  0.79, 
 07/10/06, 12:00,  11.9,  97,  14.5,  15.2,  16.8,   0.0,  1.68, 
 07/10/06, 13:00,  14.2,  79,  15.1,  15.3,  16.8,   0.0,  2.54, 
 07/10/06, 14:00,  14.5,  61,  15.9,  15.3,  16.8,   0.0,  2.60, 
 07/10/06, 15:00,  13.7,  69,  16.2,  15.4,  16.6,   0.0,  2.10, 
 07/10/06, 16:00,  13.1,  68,  16.2,  15.6,  16.7,   0.0,  1.34, 
 07/10/06, 17:00,  11.9,  76,  15.9,  15.6,  16.7,   0.0,  0.66, 
 07/10/06, 18:00,   9.2,  96,  15.6,  15.8,  16.7,   0.0,  0.07, 
 07/10/06, 19:00,   8.1,  95,  15.3,  15.7,  16.7,   0.0,  0.00, 
 07/10/06, 20:00,   8.3,  92,  15.0,  15.7,  16.7,   0.0,  0.00, 
 07/10/06, 21:00,   8.6,  83,  14.7,  15.7,  16.7,   0.0,  0.00, 
 07/10/06, 22:00,   9.5,  86,  14.4,  15.8,  16.6,   0.0,  0.00, 
 07/10/06, 23:00,   9.9,  96,  14.1,  15.6,  16.6,   0.0,  0.00, 
 07/10/07, 00:00,   9.7,  97,  13.9,  15.6,  16.6,   0.0,  0.00, 
 07/10/07, 01:00,  10.1,  94,  13.8,  15.5,  16.6,   0.0,  0.00, 
 07/10/07, 02:00,   9.3,  99,  13.6,  15.4,  16.6,   0.0,  0.00, 
 07/10/07, 03:00,   9.7,  97,  13.5,  15.4,  16.6,   0.0,  0.00, 
 07/10/07, 04:00,  10.0,  97,  13.4,  15.2,  16.5,   0.0,  0.00, 
 07/10/07, 05:00,   9.8,  97,  13.4,  15.2,  16.5,   0.0,  0.00, 
 07/10/07, 06:00,   9.1,  99,  13.3,  15.1,  16.5,   0.0,  0.00, 
 07/10/07, 07:00,   9.8,  97,  13.2,  15.0,  16.6,   0.0,  0.19, 
 07/10/07, 08:00,  11.8,  84,  13.1,  14.9,  16.6,   0.0,  0.82, 
 07/10/07, 09:00,  13.3,  82,  13.1,  14.9,  16.5,   0.0,  1.36, 
 07/10/07, 10:00,  14.1,  81,  13.3,  14.8,  16.5,   0.0,  2.04, 
 07/10/07, 11:00,  15.3,  81,  14.0,  14.8,  16.5,   0.0,  2.47, 
 07/10/07, 12:00,  14.8,  79,  15.0,  14.8,  16.5,   0.0,  2.00, 
 07/10/07, 13:00,  16.5,  73,  15.8,  14.8,  16.5,   0.0,  2.04, 
 07/10/07, 14:00,  15.2,  77,  16.4,  14.9,  16.4,   0.0,  1.83, 
 07/10/07, 15:00,  14.6,  80,  16.6,  15.1,  16.3,   0.0,  0.98, 
 07/10/07, 16:00,  14.3,  81,  16.6,  15.3,  16.3,   0.0,  0.94, 
 07/10/07, 17:00,  13.5,  85,  16.5,  15.5,  16.4,   0.0,  0.45, 
 07/10/07, 18:00,  11.9,  96,  16.2,  15.6,  16.4,   0.0,  0.05, 
 07/10/07, 19:00,  12.4,  87,  15.9,  15.6,  16.4,   0.0,  0.00, 
 07/10/07, 20:00,  11.9,  90,  15.7,  15.6,  16.3,   0.0,  0.00, 
 07/10/07, 21:00,  12.4,  88,  15.5,  15.6,  16.3,   0.0,  0.00, 
 07/10/07, 22:00,  11.4,  98,  15.3,  15.6,  16.3,   0.0,  0.00, 
 07/10/07, 23:00,  11.6,  95,  15.1,  15.7,  16.3,   0.0,  0.00, 
 07/10/08, 00:00,  12.5,  93,  15.0,  15.6,  16.3,   0.0,  0.00, 
 07/10/08, 01:00,  13.1,  94,  14.9,  15.6,  16.4,   0.0,  0.00, 
 07/10/08, 02:00,  13.8,  95,  14.9,  15.6,  16.3,   0.0,  0.00, 
 07/10/08, 03:00,  14.6,  93,  14.8,  15.6,  16.4,   0.0,  0.00, 
 07/10/08, 04:00,  14.2,  99,  14.8,  15.6,  16.4,   0.0,  0.00, 
 07/10/08, 05:00,  14.6,  99,  14.8,  15.5,  16.4,   0.5,  0.00, 
 07/10/08, 06:00,  14.4,  99,  14.8,  15.5,  16.4,   5.5,  0.00, 
 07/10/08, 07:00,  14.6,  99,  14.8,  15.5,  16.4,   4.5,  0.00, 
 07/10/08, 08:00,  14.9,  99,  14.8,  15.4,  16.4,   2.5,  0.04, 
 07/10/08, 09:00,  15.0,  99,  14.9,  15.4,  16.3,   4.5,  0.13, 
 07/10/08, 10:00,  15.3,  99,  15.0,  15.4,  16.3,   1.5,  0.22, 
 07/10/08, 11:00,  15.4,  99,  15.1,  15.3,  16.3,   2.0,  0.24, 
 07/10/08, 12:00,  15.6,  99,  15.2,  15.3,  16.3,   8.5,  0.17, 
 07/10/08, 13:00,  15.9,  99,  15.3,  15.3,  16.2,   4.0,  0.22, 
 07/10/08, 14:00,  15.9,  99,  15.4,  15.3,  16.2,   1.0,  0.20, 
 07/10/08, 15:00,  16.0,  99,  15.5,  15.4,  16.2,   2.0,  0.10, 
 07/10/08, 16:00,  16.2,  99,  15.6,  15.4,  16.2,   3.0,  0.10, 
 07/10/08, 17:00,  15.8,  99,  15.7,  15.4,  16.1,   1.0,  0.11, 
 07/10/08, 18:00,  14.8,  99,  15.7,  15.5,  16.1,   0.5,  0.00, 
 07/10/08, 19:00,  14.1,  99,  15.6,  15.4,  16.1,   1.0,  0.00, 
 07/10/08, 20:00,  13.9,  99,  15.6,  15.5,  16.1,   0.5,  0.00, 
 07/10/08, 21:00,  14.5,  99,  15.6,  15.6,  16.1,   0.0,  0.00, 
 07/10/08, 22:00,  14.6,  99,  15.5,  15.6,  16.1,   0.0,  0.00, 
 07/10/08, 23:00,  14.4,  99,  15.4,  15.6,  16.1,   0.0,  0.00, 
 07/10/09, 00:00,  14.2,  99,  15.4,  15.6,  16.1,   0.0,  0.00, 
 07/10/09, 01:00,  14.1,  99,  15.4,  15.6,  16.1,   0.0,  0.00, 
 07/10/09, 02:00,  14.0,  99,  15.3,  15.6,  16.1,   0.5,  0.00, 
 07/10/09, 03:00,  13.2,  99,  15.3,  15.6,  16.1,   0.5,  0.00, 
 07/10/09, 04:00,  12.0,  99,  15.3,  15.6,  16.1,   1.5,  0.00, 
 07/10/09, 05:00,  10.2,  99,  15.2,  15.6,  16.1,   1.0,  0.00, 
 07/10/09, 06:00,   9.6,  99,  15.0,  15.6,  16.1,   1.0,  0.00, 
 07/10/09, 07:00,   9.8,  99,  14.8,  15.5,  16.1,   0.5,  0.03, 
 07/10/09, 08:00,   9.7,  99,  14.7,  15.5,  16.1,   0.0,  0.23, 
 07/10/09, 09:00,   9.4,  99,  14.6,  15.5,  16.1,   0.0,  0.20, 
 07/10/09, 10:00,   9.6,  99,  14.6,  15.3,  16.1,   0.5,  0.16, 
 07/10/09, 11:00,   9.5,  99,  14.5,  15.4,  16.1,   0.0,  0.26, 
 07/10/09, 12:00,  10.8,  99,  14.5,  15.3,  16.1,   0.0,  0.63, 
 07/10/09, 13:00,  11.2,  99,  14.5,  15.2,  16.1,   0.0,  1.02, 
 07/10/09, 14:00,  10.8,  99,  14.8,  15.3,  16.1,   0.0,  0.64, 
 07/10/09, 15:00,  11.4,  97,  15.0,  15.2,  16.1,   0.0,  1.18, 
 07/10/09, 16:00,  10.5,  92,  15.2,  15.3,  16.1,   0.0,  0.62, 
 07/10/09, 17:00,   9.9,  98,  15.2,  15.3,  16.1,   0.0,  0.27, 
 07/10/09, 18:00,   7.8,  99,  15.1,  15.2,  16.0,   0.0,  0.07, 
 07/10/09, 19:00,   7.6,  99,  14.9,  15.2,  16.1,   0.0,  0.00, 
 07/10/09, 20:00,   7.8,  99,  14.6,  15.2,  16.1,   0.0,  0.00, 
 07/10/09, 21:00,   7.2,  99,  14.4,  15.2,  16.1,   0.0,  0.00, 
 07/10/09, 22:00,   6.8,  99,  14.2,  15.2,  16.1,   0.0,  0.00, 
 07/10/09, 23:00,   5.2,  99,  14.0,  15.2,  16.1,   0.0,  0.00, 
 07/10/10, 00:00,   4.3,  99,  13.7,  15.2,  16.1,   0.0,  0.00, 
 07/10/10, 01:00,   4.1,  99,  13.4,  15.1,  16.1,   0.0,  0.00, 
 07/10/10, 02:00,   3.8,  99,  13.2,  14.9,  16.1,   0.0,  0.00, 
 07/10/10, 03:00,   3.5,  98,  12.9,  14.9,  16.1,   0.0,  0.00, 
 07/10/10, 04:00,   2.8,  99,  12.6,  14.8,  16.1,   0.0,  0.00, 
 07/10/10, 05:00,   2.7,  96,  12.4,  14.6,  16.1,   0.0,  0.00, 
 07/10/10, 06:00,   2.1,  99,  12.1,  14.5,  16.0,   0.0,  0.00, 
 07/10/10, 07:00,   4.3,  95,  11.9,  14.5,  16.0,   0.0,  0.18, 
 07/10/10, 08:00,   6.7,  85,  11.7,  14.4,  16.0,   0.0,  0.97, 
 07/10/10, 09:00,   7.7,  89,  11.6,  14.2,  16.0,   0.0,  1.70, 
 07/10/10, 10:00,  10.1,  89,  11.6,  14.0,  16.0,   0.0,  2.28, 
 07/10/10, 11:00,  11.5,  87,  12.5,  14.0,  16.0,   0.0,  2.71, 
 07/10/10, 12:00,  12.9,  83,  13.8,  14.0,  16.0,   0.0,  2.87, 
 07/10/10, 13:00,  13.6,  78,  15.2,  14.0,  15.8,   0.0,  2.81, 
 07/10/10, 14:00,  14.0,  71,  16.1,  14.1,  15.9,   0.0,  2.51, 
 07/10/10, 15:00,  13.7,  71,  16.3,  14.3,  15.9,   0.0,  2.02, 
 07/10/10, 16:00,  11.9,  70,  16.1,  14.6,  15.9,   0.0,  1.32, 
 07/10/10, 17:00,  11.1,  86,  15.8,  14.8,  15.8,   0.0,  0.57, 
 07/10/10, 18:00,   9.0,  99,  15.4,  14.9,  15.8,   0.0,  0.02, 
 07/10/10, 19:00,   7.7,  99,  15.0,  15.0,  15.8,   0.0,  0.00, 
 07/10/10, 20:00,   7.7,  99,  14.7,  15.0,  15.7,   0.0,  0.00, 
 07/10/10, 21:00,   8.4,  98,  14.3,  15.0,  15.7,   0.0,  0.00, 
 07/10/10, 22:00,   8.6,  99,  14.0,  15.0,  15.8,   0.0,  0.00, 
 07/10/10, 23:00,   9.0,  99,  13.8,  15.0,  15.8,   0.0,  0.00, 
 07/10/11, 00:00,   8.4,  99,  13.6,  14.8,  15.7,   0.0,  0.00, 
 07/10/11, 01:00,   9.1,  99,  13.5,  14.8,  15.8,   0.0,  0.00, 
 07/10/11, 02:00,   8.6,  99,  13.3,  14.8,  15.8,   0.0,  0.00, 
 07/10/11, 03:00,   8.2,  99,  13.2,  14.7,  15.8,   0.0,  0.00, 
 07/10/11, 04:00,   7.5,  99,  13.1,  14.6,  15.8,   0.0,  0.00, 
 07/10/11, 05:00,   8.1,  97,  12.9,  14.5,  15.8,   0.0,  0.00, 
 07/10/11, 06:00,   6.8,  99,  12.6,  14.5,  15.8,   0.0,  0.00, 
 07/10/11, 07:00,   7.8,  99,  12.4,  14.4,  15.7,   0.0,  0.14, 
 07/10/11, 08:00,  11.9,  80,  12.3,  14.3,  15.7,   0.0,  0.88, 
 07/10/11, 09:00,  11.5,  88,  12.4,  14.2,  15.7,   0.0,  0.84, 
 07/10/11, 10:00,  13.2,  84,  12.6,  14.1,  15.7,   0.0,  1.11, 
 07/10/11, 11:00,  14.5,  79,  13.1,  14.1,  15.7,   0.0,  1.89, 
 07/10/11, 12:00,  14.4,  79,  13.9,  14.0,  15.6,   0.0,  1.85, 
 07/10/11, 13:00,  14.7,  81,  14.6,  14.1,  15.6,   0.0,  1.14, 
 07/10/11, 14:00,  14.3,  84,  15.0,  14.2,  15.7,   0.0,  0.93, 
 07/10/11, 15:00,  14.7,  80,  15.2,  14.3,  15.6,   0.0,  1.63, 
 07/10/11, 16:00,  13.6,  85,  15.3,  14.4,  15.6,   0.0,  0.91, 
 07/10/11, 17:00,  13.2,  95,  15.4,  14.5,  15.6,   0.0,  0.51, 
 07/10/11, 18:00,  11.3,  99,  15.3,  14.6,  15.5,   0.0,  0.02, 
 07/10/11, 19:00,  10.6,  99,  15.2,  14.7,  15.6,   0.0,  0.00, 
 07/10/11, 20:00,  10.4,  99,  15.0,  14.8,  15.6,   0.0,  0.00, 
 07/10/11, 21:00,   9.9,  99,  14.8,  14.8,  15.6,   0.0,  0.00, 
 07/10/11, 22:00,   9.9,  99,  14.7,  14.9,  15.6,   0.0,  0.00, 
 07/10/11, 23:00,   9.8,  99,  14.5,  14.9,  15.5,   0.0,  0.00, 
 07/10/12, 00:00,   9.2,  99,  14.4,  14.9,  15.6,   0.0,  0.00, 
 07/10/12, 01:00,   8.9,  99,  14.2,  14.8,  15.6,   0.0,  0.00, 
 07/10/12, 02:00,   8.9,  99,  14.0,  14.8,  15.6,   0.0,  0.00, 
 07/10/12, 03:00,   9.0,  99,  13.9,  14.8,  15.6,   0.0,  0.00, 
 07/10/12, 04:00,   8.7,  99,  13.8,  14.7,  15.6,   0.0,  0.00, 
 07/10/12, 05:00,   8.6,  99,  13.7,  14.7,  15.5,   0.0,  0.00, 
 07/10/12, 06:00,   8.4,  99,  13.6,  14.7,  15.5,   0.0,  0.00, 
 07/10/12, 07:00,   8.2,  99,  13.5,  14.6,  15.6,   0.0,  0.13, 
 07/10/12, 08:00,   9.2,  99,  13.4,  14.5,  15.6,   0.0,  0.70, 
 07/10/12, 09:00,  10.4,  96,  13.6,  14.5,  15.6,   0.0,  1.37, 
 07/10/12, 10:00,  10.7,  92,  13.7,  14.5,  15.6,   0.0,  1.03, 
 07/10/12, 11:00,  11.7,  92,  14.0,  14.4,  15.6,   0.0,  0.96, 
 07/10/12, 12:00,  10.2,  99,  14.2,  14.4,  15.6,   0.0,  0.41, 
 07/10/12, 13:00,  11.3,  91,  14.4,  14.4,  15.5,   0.0,  0.83, 
 07/10/12, 14:00,  10.8,  96,  14.4,  14.5,  15.4,   0.0,  0.66, 
 07/10/12, 15:00,  10.9,  95,  14.5,  14.5,  15.5,   0.0,  0.54, 
 07/10/12, 16:00,  10.1,  92,  14.6,  14.5,  15.5,   0.0,  0.41, 
 07/10/12, 17:00,   9.5,  96,  14.6,  14.6,  15.5,   0.0,  0.10, 
 07/10/12, 18:00,   8.6,  96,  14.5,  14.6,  15.5,   0.0,  0.00, 
 07/10/12, 19:00,   8.0,  95,  14.3,  14.6,  15.5,   0.0,  0.00, 
 07/10/12, 20:00,   7.5,  95,  14.1,  14.6,  15.5,   0.0,  0.00, 
 07/10/12, 21:00,   7.0,  95,  13.9,  14.6,  15.5,   0.0,  0.00, 
 07/10/12, 22:00,   7.2,  86,  13.7,  14.6,  15.5,   0.0,  0.00, 
 07/10/12, 23:00,   6.2,  95,  13.4,  14.6,  15.5,   0.0,  0.00, 
 07/10/13, 00:00,   6.7,  76,  13.2,  14.5,  15.5,   0.0,  0.00, 
 07/10/13, 01:00,   5.7,  88,  13.0,  14.5,  15.5,   0.0,  0.00, 
 07/10/13, 02:00,   5.4,  87,  12.8,  14.4,  15.5,   0.0,  0.00, 
 07/10/13, 03:00,   5.0,  90,  12.6,  14.3,  15.5,   0.0,  0.00, 
 07/10/13, 04:00,   5.7,  89,  12.4,  14.2,  15.4,   0.0,  0.00, 
 07/10/13, 05:00,   5.4,  91,  12.2,  14.1,  15.5,   0.0,  0.00, 
 07/10/13, 06:00,   5.8,  86,  12.0,  14.0,  15.5,   0.0,  0.00, 
 07/10/13, 07:00,   6.0,  85,  11.9,  14.0,  15.3,   0.0,  0.07, 
 07/10/13, 08:00,   6.5,  86,  11.8,  13.9,  15.4,   0.0,  0.43, 
 07/10/13, 09:00,   8.2,  77,  11.9,  13.8,  15.4,   0.0,  1.51, 
 07/10/13, 10:00,  10.3,  78,  12.0,  13.7,  15.4,   0.0,  1.58, 
 07/10/13, 11:00,  11.1,  78,  12.6,  13.6,  15.4,   0.0,  2.11, 
 07/10/13, 12:00,  11.3,  83,  13.4,  13.6,  15.4,   0.0,  2.08, 
 07/10/13, 13:00,  11.2,  76,  14.1,  13.6,  15.4,   0.0,  2.03, 
 07/10/13, 14:00,  12.4,  58,  14.6,  13.7,  15.4,   0.0,  1.69, 
 07/10/13, 15:00,  11.1,  62,  14.8,  13.8,  15.4,   0.0,  1.44, 
 07/10/13, 16:00,  10.5,  67,  14.7,  14.0,  15.3,   0.0,  0.60, 
 07/10/13, 17:00,   9.0,  61,  14.6,  14.1,  15.3,   0.0,  0.39, 
 07/10/13, 18:00,   7.1,  82,  14.3,  14.2,  15.4,   0.0,  0.02, 
 07/10/13, 19:00,   6.4,  73,  14.0,  14.2,  15.4,   0.0,  0.00, 
 07/10/13, 20:00,   6.1,  85,  13.7,  14.3,  15.3,   0.0,  0.00, 
 07/10/13, 21:00,   6.0,  84,  13.5,  14.3,  15.2,   0.0,  0.00, 
 07/10/13, 22:00,   5.8,  88,  13.3,  14.2,  15.2,   0.0,  0.00, 
 07/10/13, 23:00,   6.8,  81,  13.0,  14.2,  15.2,   0.0,  0.00, 
 07/10/14, 00:00,   6.8,  83,  12.8,  14.1,  15.2,   0.0,  0.00, 
 07/10/14, 01:00,   5.4,  83,  12.6,  14.1,  15.2,   0.0,  0.00, 
 07/10/14, 02:00,   4.7,  83,  12.4,  14.0,  15.2,   0.0,  0.00, 
 07/10/14, 03:00,   4.7,  85,  12.1,  13.9,  15.2,   0.0,  0.00, 
 07/10/14, 04:00,   4.6,  86,  11.9,  13.8,  15.2,   0.0,  0.00, 
 07/10/14, 05:00,   4.8,  86,  11.7,  13.8,  15.2,   0.0,  0.00, 
 07/10/14, 06:00,   4.1,  94,  11.5,  13.7,  15.2,   0.0,  0.00, 
 07/10/14, 07:00,   4.2,  95,  11.3,  13.6,  15.2,   0.0,  0.09, 
 07/10/14, 08:00,   5.9,  91,  11.2,  13.5,  15.2,   0.0,  0.45, 
 07/10/14, 09:00,   8.6,  84,  11.2,  13.3,  15.2,   0.0,  1.21, 
 07/10/14, 10:00,   9.8,  86,  11.5,  13.3,  15.1,   0.0,  1.95, 
 07/10/14, 11:00,  11.0,  85,  12.1,  13.2,  15.0,   0.0,  1.81, 
 07/10/14, 12:00,  11.3,  79,  12.7,  13.3,  15.2,   0.0,  1.55, 
 07/10/14, 13:00,  11.4,  76,  13.3,  13.2,  15.2,   0.0,  1.32, 
 07/10/14, 14:00,  11.4,  77,  13.6,  13.2,  15.2,   0.0,  0.81, 
 07/10/14, 15:00,  11.2,  80,  13.7,  13.3,  15.1,   0.0,  0.86, 
 07/10/14, 16:00,  10.4,  76,  13.7,  13.4,  15.0,   0.0,  0.53, 
 07/10/14, 17:00,   9.2,  87,  13.7,  13.5,  15.0,   0.0,  0.15, 
 07/10/14, 18:00,   8.7,  89,  13.5,  13.6,  15.0,   0.0,  0.00, 
 07/10/14, 19:00,   8.5,  90,  13.5,  13.6,  15.1,   0.0,  0.00, 
 07/10/14, 20:00,   7.3,  96,  13.3,  13.7,  15.1,   0.0,  0.00, 
 07/10/14, 21:00,   6.5,  96,  12.9,  13.7,  14.8,   0.0,  0.00, 
 07/10/14, 22:00,   7.4,  96,  12.7,  13.7,  14.9,   0.0,  0.00, 
 07/10/14, 23:00,   7.7,  97,  12.5,  13.7,  14.9,   0.0,  0.00, 
 07/10/15, 00:00,   7.0,  99,  12.4,  13.6,  14.9,   0.0,  0.00, 
 07/10/15, 01:00,   7.4,  99,  12.3,  13.6,  14.8,   0.0,  0.00, 
 07/10/15, 02:00,   7.2,  94,  12.1,  13.5,  14.9,   0.0,  0.00, 
 07/10/15, 03:00,   6.4,  98,  12.1,  13.5,  14.9,   0.0,  0.00, 
 07/10/15, 04:00,   6.2,  95,  11.9,  13.4,  14.9,   0.0,  0.00, 
 07/10/15, 05:00,   5.0,  96,  11.7,  13.4,  14.9,   0.0,  0.00, 
 07/10/15, 06:00,   5.1,  99,  11.6,  13.3,  14.9,   0.0,  0.00, 
 07/10/15, 07:00,   5.4,  96,  11.4,  13.3,  14.9,   0.0,  0.10, 
 07/10/15, 08:00,   6.5,  94,  11.3,  13.2,  14.9,   0.0,  0.98, 
 07/10/15, 09:00,   7.8,  95,  11.3,  13.1,  14.7,   0.0,  1.59, 
 07/10/15, 10:00,   9.1,  86,  11.4,  13.0,  14.8,   0.0,  2.36, 
 07/10/15, 11:00,  10.1,  79,  12.3,  13.0,  14.8,   0.0,  2.18, 
 07/10/15, 12:00,  10.8,  79,  13.1,  13.0,  14.8,   0.0,  1.31, 
 07/10/15, 13:00,  11.4,  77,  13.5,  13.0,  14.8,   0.0,  1.55, 
 07/10/15, 14:00,  10.5,  81,  13.7,  13.1,  14.8,   0.0,  1.12, 
 07/10/15, 15:00,  10.4,  81,  13.9,  13.2,  14.8,   0.0,  0.83, 
 07/10/15, 16:00,   9.6,  87,  13.9,  13.3,  14.7,   0.0,  0.30, 
 07/10/15, 17:00,   8.9,  90,  13.7,  13.4,  14.7,   0.0,  0.18, 
 07/10/15, 18:00,   7.6,  97,  13.6,  13.5,  14.7,   0.0,  0.02, 
 07/10/15, 19:00,   6.9,  99,  13.4,  13.5,  14.7,   0.0,  0.00, 
 07/10/15, 20:00,   7.0,  99,  13.1,  13.6,  14.7,   0.0,  0.00, 
 07/10/15, 21:00,   6.7,  99,  12.9,  13.6,  14.7,   0.0,  0.00, 
 07/10/15, 22:00,   6.5,  99,  12.6,  13.6,  14.7,   0.0,  0.00, 
 07/10/15, 23:00,   6.5,  99,  12.5,  13.6,  14.6,   0.0,  0.00, 
 07/10/16, 00:00,   6.4,  99,  12.4,  13.5,  14.7,   0.0,  0.00, 
 07/10/16, 01:00,   5.9,  99,  12.1,  13.5,  14.7,   0.0,  0.00, 